User: anonymous   Login
Location: Leeds
(37.2390°N, 113.3580°W)
Time: 03:13:33
(UTC-06:00)
Language:

SL-08 RB Rocket - Orbit

View from above orbital plane
View from above orbital plane
View from above satellite
View from above satellite

Ground track
Ground track

The orbit data is extracted from the following two-line orbital elements,

1 26387U 00033D   16243.22356494  .00000088  00000-0  23722-4 0  9999
2 26387  98.0116 308.3142 0026611 178.6267 248.6999 14.68181597865182
Epoch (UTC): 30 August 2016 05:21:56
Eccentricity: 0.0026611
inclination: 98.0116°
perigee height: 648 km
apogee height: 685 km
right ascension of ascending node: 308.3142°
argument of perigee: 178.6267°
revolutions per day: 14.68181597
mean anomaly at epoch: 248.6999°
orbit number at epoch: 86518

The dashed part of the orbit path shows where the satellite is in the earth's shadow,  

DLR